Location: Stara Lesna
(49.1528°N, 20.2911°E)
Time: 03:00:50
(UTC+02:00)

IRIDIUM 114 - Pass Details

Date: 21 September 2019
Orbit: 776 x 779 km, 86.4° (Epoch: 13 October)

Event Time Altitude Azimuth Distance (km) Brightness Sun altitude
Exits shadow 03:43:01 62° 298° (WNW) 874 4.4 -25.4°
Drops below altitude 10° 03:47:54 10° 359° (N) 2,342 7.2 -24.7°
Sets 03:50:17 0° 2° (N) 3,274 8.1 -24.4°
